Location: Bottenau
(48.5138°N, 8.0462°E)
Time: 17:07:36
(UTC+00:00)

Cosmos 2360 Rocket - Pass Details

Date: 18 April 2021
Orbit: 833 x 845 km, 71.0° (Epoch: 06 May)

Event Time Altitude Azimuth Distance (km) Brightness Sun altitude
Rises 18:49:56 0° 329° (NNW) 3,414 6.3 -4.9°
Reaches altitude 10° 18:52:25 10° 326° (NW) 2,474 5.7 -5.3°
Maximum altitude 18:57:59 60° 248° (WSW) 965 2.8 -6.1°
Drops below altitude 10° 19:03:30 10° 170° (S) 2,449 4.3 -7.0°
Sets 19:05:57 0° 167° (SSE) 3,377 5.0 -7.3°
